Location: Ellingshausen
(50.5460°N, 10.4723°E)
Time: 14:46:04
(UTC+00:00)

NOSS 8 (E) - Pass Details

Date: 18 January 2026
Orbit: 364 x 1529 km, 63.3° (Epoch: 16 February)

Event Time Altitude Azimuth Distance (km) Brightness Sun altitude
Exits shadow 05:03:56 53° 192° (SSW) 500 4.5 -19.5°
Drops below altitude 10° 05:06:51 10° 149° (SSE) 1,569 7.7 -19.1°
Sets 05:09:11 0° 146° (SE) 2,574 8.9 -18.7°
